Flag for U.S.A. Weather past 2 weeks in Citrus Heights, California, U.S.A.

81 °F


Feels Like: 80 °F
Forecast: 60 / 89 °F
Wind: 3 mph from Northwest

Location: Mather Field

Current Time: Oct 9, 2015 at 11:52:18 AM

Latest Report: Oct 9, 2015 at 10:55 AM

Visibility: 10 mi

Pressure: 30.04 "Hg

Humidity: 34%

Dew point: 50 °F

Location of Citrus HeightsLocation

Historic Weather in Citrus Heights — Graph


Citrus Heights temperature yesterday

Maximum temperature yesterday: 88 °F (at 2:55 PM)
Minimum temperature yesterday: 59 °F (at 6:45 AM)
Average temperature yesterday: 74 °F

Past Weeks' High & Low Weather Summary

High95 °F (Sep 25, 2:45 PM)100% (Oct 1, 7:45 AM)30.14 "Hg (Oct 1, 7:45 AM)
Low50 °F (Oct 4, 5:45 AM)15% (Sep 25, 3:45 PM)29.40 "Hg (Oct 3, 6:50 PM)
Average70 °F55%29.90 "Hg
* Reported Sep 24 9:45 AM — Oct 9 9:45 AM, Citrus Heights, Weather by CustomWeather, © 2015

Note: Actual official high and low records may vary slightly from our data, if they occured in-between our weather recording intervals... More about our weather records


Citrus Heights weather history for previous 24 hours

Time TempWeatherWind HumidityBarometerVisibility
9:45 AM
Fri, Oct 9
73 °FScattered clouds.5 mph44%30.08 "Hg10 mi
8:50 AM68 °FScattered clouds.5 mph53%30.07 "Hg10 mi
7:50 AM55 °FPassing clouds.No wind82%30.07 "Hg10 mi
6:50 AM57 °FPassing clouds.No wind77%30.06 "Hg10 mi
5:55 AM57 °FPassing clouds.No wind77%30.05 "Hg10 mi
4:55 AM59 °FPassing clouds.3 mph72%30.03 "Hg10 mi
3:45 AM59 °FPassing clouds.5 mph77%30.02 "Hg10 mi
11:30 PM
Thu, Oct 8
66 °FPassing clouds.No wind64%30.02 "Hg10 mi
10:45 PM68 °FPassing clouds.No wind60%30.02 "Hg10 mi
9:45 PM73 °FPassing clouds.3 mph50%30.02 "Hg10 mi
8:45 PM72 °FPassing clouds.No wind53%30.02 "Hg10 mi
7:50 PM75 °FPassing clouds.No wind47%30.02 "Hg10 mi
6:45 PM82 °FScattered clouds.No wind37%30.01 "Hg10 mi
5:45 PM86 °FScattered clouds.3 mph33%30.02 "Hg10 mi
4:55 PM86 °FScattered clouds.3 mph33%30.03 "Hg10 mi
3:55 PM88 °FScattered clouds.3 mph31%30.04 "Hg10 mi
2:55 PM88 °FScattered clouds.5 mph31%30.05 "Hg10 mi
1:55 PM84 °FScattered clouds.No wind37%30.06 "Hg10 mi
12:50 PM84 °FScattered clouds.5 mph37%30.07 "Hg10 mi
11:55 AM82 °FScattered clouds.No wind40%30.08 "Hg10 mi
Weather by CustomWeather, © 2015

See weather overviewHow to use our weather pages